| time (UTC) | temp F | wind direction | speed MPH | gust MPH | rain 1hr in | rain 24hr in | rain mn in | humidity % | barometer mb |
| 20260905171223 | 64 | 0 | 0.0 | 0.0 | 0.00 | 0.10 | 0.10 | 70 | 921.4 |
| 20260905164223 | 65 | 0 | 0.0 | 0.0 | 0.00 | 0.10 | 0.10 | 67 | 921.3 |
| 20260905161223 | 68 | 0 | 0.0 | 0.0 | 0.00 | 0.10 | 0.10 | 61 | 921.2 |
| 20260905154222 | 66 | 302 | 0.0 | 3.0 | 0.01 | 0.10 | 0.10 | 67 | 921.2 |
| 20260905151222 | 62 | 309 | 0.0 | 3.0 | 0.03 | 0.10 | 0.10 | 74 | 921.5 |
| 20260905145622 | 62 | 247 | 0.0 | 2.0 | 0.01 | 0.08 | 0.08 | 72 | 921.4 |
| 20260905144022 | 63 | 300 | 1.0 | 6.0 | 0.00 | 0.07 | 0.07 | 70 | 921.4 |
| 20260905142422 | 63 | 288 | 4.0 | 7.0 | 0.00 | 0.07 | 0.07 | 69 | 921.1 |
| 20260905140823 | 66 | 278 | 9.0 | 18.0 | 0.00 | 0.07 | 0.07 | 63 | 920.8 |
| 20260905140022 | 66 | 278 | 9.0 | 18.0 | 0.00 | 0.07 | 0.07 | 63 | 920.8 |
| 20260905135223 | 67 | 280 | 9.0 | 16.0 | 0.00 | 0.07 | 0.07 | 60 | 920.4 |
| 20260905134422 | 68 | 280 | 8.0 | 15.0 | 0.00 | 0.07 | 0.07 | 60 | 920.2 |
| 20260905133622 | 68 | 280 | 8.0 | 15.0 | 0.00 | 0.07 | 0.07 | 60 | 920.2 |
| 20260905133223 | 68 | 282 | 8.0 | 13.0 | 0.00 | 0.07 | 0.07 | 58 | 920.0 |
| 20260905132823 | 68 | 282 | 8.0 | 13.0 | 0.00 | 0.07 | 0.07 | 58 | 920.0 |
| 20260905132422 | 68 | 282 | 8.0 | 13.0 | 0.00 | 0.07 | 0.07 | 58 | 920.0 |
| 20260905132022 | 70 | 279 | 9.0 | 15.0 | 0.00 | 0.07 | 0.07 | 56 | 919.8 |
| 20260905131823 | 70 | 279 | 9.0 | 15.0 | 0.00 | 0.07 | 0.07 | 56 | 919.8 |
| 20260905131623 | 70 | 279 | 9.0 | 15.0 | 0.00 | 0.07 | 0.07 | 56 | 919.8 |
| 20260905131422 | 70 | 279 | 9.0 | 15.0 | 0.00 | 0.07 | 0.07 | 56 | 919.8 |
| 20260905131223 | 70 | 279 | 9.0 | 15.0 | 0.00 | 0.07 | 0.07 | 56 | 919.8 |
| 20260905131123 | 70 | 279 | 9.0 | 15.0 | 0.00 | 0.07 | 0.07 | 56 | 919.8 |
| 20260905131023 | 70 | 279 | 9.0 | 15.0 | 0.00 | 0.07 | 0.07 | 56 | 919.8 |
| 20260905130923 | 70 | 279 | 9.0 | 15.0 | 0.00 | 0.07 | 0.07 | 56 | 919.8 |
| 20260905080501 | 60 | 339 | 0.0 | 2.0 | 0.06 | 0.06 | 0.06 | 73 | 920.0 |
| 20260905080101 | 60 | 339 | 0.0 | 2.0 | 0.06 | 0.06 | 0.06 | 73 | 920.0 |
| 20260905075701 | 60 | 339 | 0.0 | 2.0 | 0.06 | 0.06 | 0.06 | 73 | 920.0 |
| 20260905075305 | 60 | 278 | 0.0 | 2.0 | 0.06 | 0.06 | 0.06 | 72 | 919.9 |
| 20260905074901 | 61 | 303 | 0.0 | 3.0 | 0.06 | 0.06 | 0.06 | 72 | 919.9 |
| 20260905074701 | 61 | 303 | 0.0 | 3.0 | 0.06 | 0.06 | 0.06 | 72 | 919.9 |
| 20260905074501 | 61 | 0 | 0.0 | 0.0 | 0.06 | 0.06 | 0.06 | 72 | 919.9 |
| 20260905074301 | 61 | 0 | 0.0 | 0.0 | 0.06 | 0.06 | 0.06 | 72 | 919.9 |
| 20260905074101 | 61 | 0 | 0.0 | 0.0 | 0.06 | 0.06 | 0.06 | 72 | 919.9 |
| 20260905074001 | 61 | 217 | 0.0 | 2.0 | 0.01 | 0.01 | 0.01 | 71 | 919.8 |
| 20260905073901 | 61 | 217 | 0.0 | 2.0 | 0.01 | 0.01 | 0.01 | 71 | 919.8 |
| 20260905073801 | 61 | 217 | 0.0 | 2.0 | 0.01 | 0.01 | 0.01 | 71 | 919.8 |